Wind_Speed
6 4 2 3 5 7 10 12 14 16 18 20 22 22 23 24 25 25 25 26 26 27 27 27 27 27 27 28 28 28 28 28 27 27 27 27 27 27
6 4 2 3 5 7 8 11 13 15 16 18 21 21 23 23 24 24 25 25 26 26 27 27 28 28 28 29 29 29 30 30 30 30 30 30 29 29
7 5 3 3 5 7 8 11 12 14 15 17 19 21 21 22 22 23 24 24 25 26 26 27 28 29 29 30 30 31 31 32 33 33 32 33 32 32
7 5 4 3 4 5 7 9 11 13 15 16 18 19 19 21 21 22 23 23 24 24 26 27 29 30 31 32 32 32 33 33 34 34 34 34 34 34
7 6 4 3 3 5 7 9 10 12 14 15 17 18 19 20 21 22 23 23 24 24 25 26 27 29 31 32 33 33 33 34 34 35 36 36 36 36
8 7 5 4 4 4 6 7 9 11 14 15 17 18 19 20 20 20 21 23 23 24 25 26 27 28 30 32 33 34 34 34 35 36 36 37 37 38
8 7 6 6 6 5 6 7 8 9 12 14 16 18 19 20 20 21 21 22 22 23 24 26 27 28 29 31 32 33 34 35 36 36 36 36 37 37
9 8 7 7 6 7 7 8 8 9 11 13 14 16 18 19 19 20 20 21 22 22 23 24 26 27 28 29 30 32 33 34 35 36 37 37 36 36
10 10 9 8 7 7 8 8 9 9 10 12 13 15 16 17 18 19 20 20 21 22 24 25 25 27 28 30 31 32 33 33 34 35 37 38 38 38
12 11 10 10 9 9 9 9 10 10 11 12 13 14 16 17 18 19 20 21 22 23 24 25 26 26 28 29 30 31 32 33 33 34 35 36 37 38
15 13 12 12 11 11 11 11 10 10 10 11 13 14 15 17 18 19 20 21 22 23 23 24 25 26 27 28 28 29 30 31 32 33 34 36 36 37
17 16 15 14 13 13 12 12 12 12 11 12 13 14 15 16 18 18 19 20 21 22 22 23 24 25 25 27 28 28 29 30 31 32 34 35 35 36
20 18 17 17 16 15 14 14 14 14 13 13 14 15 16 16 17 18 19 20 21 21 22 24 24 25 26 27 28 29 29 30 30 31 32 34 35 35
22 21 20 19 18 17 17 16 16 15 15 15 15 16 16 17 18 18 20 21 22 23 24 25 25 26 26 27 28 29 30 30 30 31 32 33 34 35
25 24 23 22 21 20 19 19 18 18 18 17 17 17 18 18 18 19 20 20 21 22 23 24 25 26 27 27 28 30 31 31 31 32 33 34 35 36
28 27 25 24 23 22 21 21 20 20 20 19 19 19 19 20 20 21 21 21 22 23 24 24 25 26 27 27 28 30 31 32 33 34 34 35 36 36
31 30 28 27 26 25 24 23 22 21 21 21 21 20 20 21 21 22 22 23 23 24 24 24 25 26 27 27 28 29 30 31 33 34 35 36 38 38
34 32 30 29 28 27 26 25 24 23 23 22 22 22 22 22 22 23 23 23 24 25 25 26 26 27 28 28 29 29 30 32 33 34 35 35 37 39
36 34 33 32 31 30 28 27 26 26 25 24 24 23 23 23 23 24 24 24 25 25 26 27 27 28 29 29 30 31 32 32 33 34 35 36 37 38
38 36 35 33 32 32 31 29 28 28 27 26 26 25 25 25 25 25 25 26 26 26 27 27 28 29 30 31 32 33 34 34 34 35 36 37 38 39
40 38 36 35 34 33 32 31 30 29 28 27 27 27 26 26 26 26 26 26 27 27 28 29 30 30 31 32 32 33 35 36 37 37 38 39 40 41
42 40 38 37 36 34 34 32 31 30 30 29 29 28 28 27 27 27 27 28 28 29 29 30 30 31 32 32 33 34 35 36 37 38 39 41 42 42
44 42 40 38 37 36 35 34 32 32 31 30 30 30 29 29 29 29 29 30 30 30 30 31 31 32 32 33 34 35 36 37 38 39 40 42 43 43
Wind_Direction
3 347 296 225 215 208 211 211 212 214 214 215 218 220 223 224 227 226 228 230 233 234 234 235 237 239 240 241 241 242 244 246 247 247 248 249 251 253
351 341 310 242 224 221 218 218 216 216 218 219 220 221 224 226 229 230 229 231 234 235 237 238 239 241 243 243 244 245 246 248 249 250 250 251 253 254
353 344 316 260 238 234 230 224 221 219 221 224 225 227 227 227 230 231 231 234 235 236 238 240 241 242 243 244 246 247 248 249 250 251 252 253 254 255
354 347 328 295 252 239 233 228 225 222 225 227 227 229 229 229 232 234 235 236 238 239 240 242 243 245 246 247 248 249 249 250 250 251 252 254 255 256
349 345 337 312 279 254 242 238 233 230 230 230 228 230 230 232 234 235 237 238 240 242 244 245 246 247 248 249 250 250 251 251 252 253 254 254 255 256
339 339 333 315 293 274 258 250 244 238 234 232 232 233 233 235 237 237 240 243 244 245 247 248 250 251 252 252 252 252 252 252 253 254 255 255 256 257
323 322 317 305 291 279 271 264 257 249 239 236 237 238 238 239 239 240 243 245 247 249 250 250 253 254 256 255 255 254 254 254 254 255 256 256 257 257
305 305 303 298 290 279 274 271 268 260 249 245 244 243 242 241 241 242 245 247 251 252 254 255 257 258 257 256 257 256 256 256 256 256 256 257 257 258
293 293 291 286 283 279 275 272 272 269 263 257 255 251 246 245 246 247 249 252 254 258 258 260 262 262 260 259 260 260 258 258 259 259 258 258 257 258
282 284 282 280 279 274 273 272 271 269 266 263 260 257 253 250 251 253 255 257 258 261 264 265 266 266 264 262 262 262 262 261 261 261 260 260 260 260
273 275 276 274 273 272 270 270 269 267 267 266 263 261 259 256 256 257 259 261 261 264 267 268 269 270 268 266 264 264 264 263 262 263 264 262 263 263
269 269 270 271 269 268 268 267 267 266 267 268 267 264 261 260 258 260 261 263 265 267 269 270 270 271 270 269 267 266 266 265 265 265 265 264 266 266
265 265 266 267 266 265 265 265 265 265 266 267 267 265 263 262 263 264 265 266 269 270 270 271 271 272 272 271 270 268 269 268 266 267 267 267 267 267
262 262 263 264 264 264 263 263 263 262 263 266 267 266 267 268 267 268 269 270 271 272 272 272 272 273 273 272 272 271 271 271 269 269 268 268 269 270
259 260 261 261 262 263 262 262 262 262 262 264 266 267 268 269 270 271 272 272 273 274 273 273 273 274 275 274 274 274 274 274 273 272 272 272 272 273
257 257 258 259 260 260 260 261 261 262 263 264 266 267 269 269 270 272 275 276 278 279 277 276 275 276 276 276 276 276 276 275 274 274 274 275 274 274
254 255 256 257 257 258 258 259 260 261 262 263 265 267 269 271 272 274 277 278 279 281 281 280 279 279 279 280 279 279 277 277 276 276 276 277 277 277
252 253 254 255 255 256 257 258 259 260 261 263 265 266 268 270 272 274 276 278 280 280 281 281 281 280 281 280 280 280 279 279 278 278 278 278 279 280
251 252 253 253 254 255 256 257 258 260 261 262 264 266 268 270 272 274 276 278 280 281 281 282 282 282 282 281 281 281 282 282 281 280 279 279 279 280
249 250 251 252 253 254 255 256 258 259 260 262 263 266 268 270 272 274 277 279 281 281 282 283 283 284 284 284 285 285 284 284 283 283 283 282 282 282
247 248 249 251 252 253 254 255 257 258 259 261 263 266 268 270 272 274 277 280 281 282 283 284 285 285 286 286 287 287 287 287 286 285 284 284 284 284
245 246 247 249 250 251 253 254 256 257 259 260 263 265 268 270 273 275 277 280 282 282 283 285 286 287 287 288 289 289 290 290 289 288 287 287 287 286
244 244 245 247 249 249 251 253 255 256 258 260 263 266 268 270 273 275 278 281 282 283 284 286 287 288 289 290 291 291 291 291 292 292 291 290 290 289
Height
5780 5779 5779 5779 5780 5781 5783 5785 5788 5791 5794 5797 5800 5804 5807 5811 5814 5817 5821 5824 5827 5830 5833 5836 5839 5841 5844 5846 5849 5851 5853 5855 5857 5859 5861 5863 5865 5867
5780 5779 5779 5778 5779 5780 5781 5783 5786 5788 5791 5793 5797 5800 5803 5806 5810 5813 5816 5819 5822 5824 5827 5830 5833 5835 5838 5840 5842 5845 5847 5849 5851 5853 5855 5856 5858 5860
5780 5779 5778 5778 5778 5779 5780 5781 5783 5786 5788 5790 5793 5796 5799 5802 5805 5808 5810 5813 5816 5818 5821 5824 5826 5829 5831 5833 5836 5838 5840 5842 5844 5846 5847 5849 5851 5852
5780 5779 5778 5777 5777 5777 5778 5779 5781 5783 5785 5787 5789 5792 5794 5797 5800 5802 5805 5808 5810 5813 5815 5817 5819 5822 5824 5826 5828 5830 5832 5834 5836 5838 5840 5842 5843 5844
5780 5778 5777 5776 5776 5776 5777 5777 5779 5780 5781 5783 5785 5787 5790 5792 5795 5797 5800 5802 5804 5806 5808 5810 5812 5814 5816 5818 5820 5822 5824 5825 5828 5829 5831 5833 5834 5835
5779 5777 5776 5775 5775 5775 5775 5775 5776 5777 5778 5779 5781 5783 5785 5787 5790 5792 5794 5796 5798 5800 5802 5803 5805 5806 5808 5810 5811 5813 5815 5816 5818 5820 5821 5823 5824 5826
5777 5776 5775 5773 5773 5773 5772 5772 5773 5773 5774 5775 5777 5778 5780 5782 5784 5786 5788 5790 5792 5794 5795 5796 5798 5799 5799 5801 5802 5804 5805 5807 5808 5810 5812 5813 5815 5816
5775 5774 5772 5771 5771 5770 5770 5770 5770 5770 5771 5771 5773 5774 5775 5777 5779 5781 5783 5784 5786 5787 5788 5789 5790 5790 5791 5792 5794 5795 5796 5797 5799 5800 5801 5803 5804 5806
5773 5771 5770 5769 5768 5768 5767 5767 5767 5767 5767 5768 5768 5769 5770 5772 5774 5775 5777 5778 5779 5780 5781 5782 5782 5782 5783 5784 5785 5786 5787 5788 5789 5790 5791 5792 5794 5795
5769 5768 5767 5766 5765 5765 5764 5764 5764 5764 5764 5764 5764 5764 5765 5767 5768 5770 5771 5772 5773 5774 5774 5774 5774 5774 5775 5775 5776 5777 5777 5778 5779 5780 5781 5782 5783 5784
5765 5764 5763 5763 5762 5762 5761 5761 5760 5760 5760 5760 5760 5760 5761 5762 5763 5764 5765 5766 5767 5767 5767 5767 5767 5767 5767 5767 5767 5768 5768 5769 5770 5771 5771 5772 5772 5773
5760 5760 5759 5758 5758 5757 5757 5757 5756 5756 5756 5756 5756 5756 5756 5757 5758 5758 5759 5760 5760 5761 5760 5760 5760 5760 5759 5759 5759 5759 5760 5760 5761 5761 5761 5762 5762 5762
5754 5754 5754 5753 5753 5753 5752 5752 5752 5752 5752 5752 5752 5752 5752 5752 5752 5753 5753 5754 5754 5754 5754 5753 5753 5752 5752 5751 5751 5751 5751 5752 5752 5752 5752 5752 5752 5752
5748 5748 5748 5748 5747 5747 5747 5747 5747 5747 5747 5747 5747 5747 5747 5747 5747 5747 5747 5747 5747 5747 5746 5746 5746 5745 5744 5744 5743 5743 5743 5743 5743 5742 5742 5742 5742 5741
5740 5740 5741 5741 5741 5741 5741 5741 5741 5741 5741 5741 5741 5741 5741 5741 5741 5741 5741 5740 5740 5739 5739 5738 5738 5737 5737 5736 5735 5735 5734 5734 5733 5733 5732 5732 5731 5731
5731 5732 5733 5733 5734 5734 5734 5734 5734 5735 5735 5735 5735 5735 5735 5735 5735 5734 5734 5733 5733 5732 5731 5730 5730 5729 5728 5728 5727 5726 5725 5725 5724 5723 5723 5722 5721 5720
5722 5723 5724 5725 5726 5726 5727 5727 5727 5728 5728 5728 5728 5728 5728 5728 5728 5727 5727 5726 5726 5725 5724 5723 5722 5721 5720 5719 5718 5717 5716 5715 5714 5714 5712 5711 5710 5709
5711 5713 5715 5716 5717 5718 5719 5719 5720 5720 5721 5721 5721 5721 5721 5721 5720 5720 5719 5719 5718 5717 5716 5715 5714 5713 5712 5711 5710 5708 5707 5706 5705 5704 5702 5701 5699 5697
5700 5703 5705 5706 5708 5709 5710 5711 5711 5712 5712 5713 5713 5713 5713 5713 5713 5712 5712 5711 5710 5709 5708 5706 5705 5704 5703 5702 5700 5699 5697 5696 5695 5693 5691 5690 5688 5686
5689 5692 5694 5696 5697 5699 5700 5701 5702 5703 5704 5704 5704 5705 5705 5705 5704 5704 5703 5703 5702 5700 5699 5698 5697 5695 5694 5692 5691 5689 5687 5685 5684 5682 5680 5679 5677 5674
5677 5680 5683 5685 5687 5688 5690 5691 5693 5694 5694 5695 5695 5696 5696 5696 5696 5695 5695 5694 5693 5691 5690 5689 5687 5686 5684 5682 5680 5678 5676 5674 5672 5670 5668 5667 5665 5662
5664 5667 5670 5673 5676 5678 5679 5681 5683 5684 5685 5686 5686 5686 5687 5687 5687 5686 5685 5685 5683 5682 5681 5679 5678 5676 5674 5672 5670 5667 5665 5662 5660 5657 5655 5653 5650 5648
5651 5654 5658 5661 5664 5666 5669 5671 5672 5674 5675 5676 5676 5677 5677 5677 5677 5677 5676 5675 5674 5672 5671 5669 5667 5665 5663 5661 5659 5657 5654 5651 5648 5645 5642 5639 5636 5633